sat.trackr.live / text

‹ back to catalog

RISAT-2BR1

NORAD 44857 · 2019-089F

PAYLOAD ACTIVE UNKNOWN

§ Identity

Operator
Country
IND
Launch date
2019-12-11
Launch site
SRILR
Launch vehicle
Mass (kg)
RCS (m²)

External: N2YO · Heavens-Above · Gunter

§ Orbital elements

Epoch: 2026-09-13T05:01:07.637088Z

Period
95.95 min
Inclination
36.9613°
Eccentricity
0.0012112
Mean motion
15.00856688 rev/d
Perigee alt
555.8 km
Apogee alt
572.7 km
Semi-major
6,942.4 km
B*
1.5363e-4
RAAN
309.5495°
Arg perigee
180.7209°
Mean anomaly
179.3517°
Rev number
37,043

§ Raw data

RISAT-2BR11 44857U 19089F   26256.20911617  .00001914  00000+0  15363-3 0  99982 44857  36.9613 309.5495 0012112 180.7209 179.3517 15.00856688370434

JSON: /api/v1/satellites/44857 · /tle

For live sub-satellite position, see the globe view (requires WebGL).

§ Visibility from observer

Set your observer location to see the next 7 days of passes ≥ 10°. The values pass through the URL so the page stays shareable.

No JS? Fill the form by hand. The geolocation button needs JavaScript.